This demonstration page uses our WeatherBlox Daily Observations layout. Learn more.

Hourly Observations for August 4, 2017

Temp ( °F °C ) Dew Point ( °F °C ) Humidity (%) Winds ( mph kmh ) Pressure ( in mb ) Visibility ( mi km ) Precip ( " mm )
12:15 am 00:15 Clear 54 12.3 51 10.5 89 89 NE 3 6 30.21 1023 10 16.09344 0 0
12:35 am 00:35 Clear 54 12.2 51 10.5 89 89 NE 3 6 30.21 1023 10 16.09344 0 0
12:55 am 00:55 Clear 54 12.3 51 10.5 89 89 Calm 30.21 1023 10 16.09344 0 0
1:15 am 01:15 Clear 53 11.8 51 10.4 91 91 Calm 30.24 1024 10 16.09344 0 0
1:35 am 01:35 Clear 53 11.4 49 9.7 89 89 Calm 30.24 1024 10 16.09344 0 0
1:55 am 01:55 Clear 51 10.6 49 9.2 91 91 WSW 3 6 30.24 1024 10 16.09344 0 0
2:15 am 02:15 Clear 51 10.5 48 9.1 91 91 Calm 30.24 1024 10 16.09344 0 0
2:35 am 02:35 Clear 52 11 49 9.7 92 92 Calm 30.24 1024 10 16.09344 0 0
2:55 am 02:55 Clear 51 10.3 48 8.8 91 91 Calm 30.24 1024 10 16.09344 0 0
3:15 am 03:15 Clear 51 10.7 49 9.3 91 91 Calm 30.24 1024 10 16.09344 0 0
3:35 am 03:35 Clear 51 10.5 49 9.2 92 92 Calm 30.24 1024 10 16.09344 0 0
3:55 am 03:55 Clear 50 10.1 48 9 93 93 NW 3 6 30.24 1024 10 16.09344 0 0
4:15 am 04:15 Clear 49 9.6 47 8.5 93 93 Calm 30.24 1024 10 16.09344 0 0
4:35 am 04:35 Clear 49 9.3 47 8.3 94 94 NNE 5 7 30.24 1024 10 16.09344 0 0
4:55 am 04:55 Clear 48 9 47 8.1 94 94 SW 3 6 30.24 1024 10 16.09344 0 0
5:15 am 05:15 Clear 48 9.1 47 8.1 94 94 Calm 30.21 1023 10 16.09344 0 0
5:35 am 05:35 Clear 49 9.2 47 8.3 94 94 Calm 30.21 1023 10 16.09344 0 0
5:55 am 05:55 Clear 48 8.7 46 7.8 94 94 Calm 30.21 1023 7 11.265408 0 0
6:15 am 06:15 Mostly Cloudy with Mist and Fog 48 8.7 46 7.9 95 95 Calm 30.21 1023 1.5 2.414016 0 0
6:35 am 06:35 Clear 47 8.2 46 7.5 95 95 Calm 30.24 1024 7 11.265408 0 0
6:55 am 06:55 Sunny with Mist and Fog 47 8.2 46 7.5 95 95 Calm 30.24 1024 3 4.828032 0 0
7:15 am 07:15 Sunny 47 8.6 46 7.8 95 95 NE 5 7 30.21 1023 7 11.265408 0 0
7:35 am 07:35 Sunny 50 10.1 49 9.5 96 96 Calm 30.21 1023 7 11.265408 0 0
7:55 am 07:55 Sunny 52 11.1 51 10.5 96 96 Calm 30.21 1023 10 16.09344 0 0
8:15 am 08:15 Sunny 54 12.4 53 11.5 94 94 Calm 30.18 1022 10 16.09344 0 0
8:35 am 08:35 Sunny 57 13.8 53 11.6 87 87 SSE 3 6 30.18 1022 10 16.09344 0 0
8:55 am 08:55 Sunny 59 14.8 54 12 83 83 SSE 3 6 30.18 1022 10 16.09344 0 0
9:15 am 09:15 Sunny 61 16 54 12 77 77 S 5 7 30.15 1021 10 16.09344 0 0
9:35 am 09:35 Sunny 62 16.7 53 11.7 73 73 S 6 9 30.15 1021 10 16.09344 0 0
9:55 am 09:55 Sunny 64 17.9 54 12 69 69 S 7 11 30.15 1021 10 16.09344 0 0
10:15 am 10:15 Sunny 65 18.3 52 11.1 63 63 S 7 11 30.12 1020 10 16.09344 0 0
10:35 am 10:35 Sunny 66 19 53 11.4 62 62 S 8 13 30.12 1020 10 16.09344 0 0
10:55 am 10:55 Sunny 67 19.2 52 11.2 60 60 SSW 6 9 30.12 1020 10 16.09344 0 0
11:15 am 11:15 Sunny 68 20.1 51 10.3 53 53 S 8 13 30.12 1020 10 16.09344 0 0
11:35 am 11:35 Sunny 70 20.9 51 10.5 52 52 SSE 9 15 30.09 1019 10 16.09344 0 0
11:55 am 11:55 Sunny 70 21.3 52 11 52 52 S 9 15 30.09 1019 10 16.09344 0 0
12:15 pm 12:15 Sunny 71 21.8 52 11 50 50 SSE 10 17 30.06 1018 10 16.09344 0 0
12:35 pm 12:35 Sunny 72 22 51 10.4 48 48 SE 12 19 30.06 1018 10 16.09344 0 0
12:55 pm 12:55 Sunny 72 22.4 49 9.5 44 44 SSE 9 15 30.03 1017 10 16.09344 0 0
1:15 pm 13:15 Sunny 74 23.1 50 9.9 43 43 SSE 13 20 30.03 1017 10 16.09344 0 0
1:35 pm 13:35 Sunny 73 22.8 52 11 47 47 S 10 17 30.03 1017 10 16.09344 0 0
1:55 pm 13:55 Mostly Cloudy 74 23.1 52 10.9 46 46 S 9 15 30.03 1017 10 16.09344 0 0
2:15 pm 14:15 Partly Cloudy 74 23.6 51 10.7 44 44 SSE 9 15 30 1016 10 16.09344 0 0
2:35 pm 14:35 Partly Cloudy 75 23.7 52 10.9 45 45 SSE 14 22 30 1016 10 16.09344 0 0
2:55 pm 14:55 Mostly Cloudy 75 24 52 11.1 44 44 SSE 13 20 30 1016 10 16.09344 0 0
3:15 pm 15:15 Mostly Cloudy 75 24.1 52 11.2 44 44 S 12 19 30 1016 10 16.09344 0 0
3:35 pm 15:35 Partly Cloudy 76 24.6 51 10.8 42 42 SSE 14 22 29.94 1014 10 16.09344 0 0
3:55 pm 15:55 Sunny 76 24.7 52 11.2 43 43 SSE 15 24 29.94 1014 10 16.09344 0 0
4:15 pm 16:15 Sunny 76 24.7 51 10.8 42 42 SSE 13 20 29.94 1014 10 16.09344 0 0
4:35 pm 16:35 Partly Cloudy 75 24.1 53 11.4 45 45 SSE 14 22 29.91 1013 10 16.09344 0 0
4:55 pm 16:55 Partly Cloudy 77 24.9 52 11.2 42 42 S 14 22 29.91 1013 10 16.09344 0 0
5:15 pm 17:15 Partly Cloudy 77 25.1 51 10.8 41 41 SSE 14 22 29.91 1013 10 16.09344 0 0
5:35 pm 17:35 Partly Cloudy 77 25 51 10.6 40 40 S 13 20 29.91 1013 10 16.09344 0 0
5:55 pm 17:55 Partly Cloudy 77 25 51 10.5 40 40 SSE 16 26 29.91 1013 10 16.09344 0 0
6:15 pm 18:15 Sunny 77 24.9 53 11.4 43 43 SSE 16 26 29.91 1013 10 16.09344 0 0
6:35 pm 18:35 Sunny 75 23.8 52 11.1 45 45 SE 15 24 29.91 1013 10 16.09344 0 0
6:55 pm 18:55 Partly Cloudy 75 24.1 52 11 44 44 SSE 14 22 29.91 1013 10 16.09344 0 0
7:15 pm 19:15 Partly Cloudy 74 23.5 52 11 45 45 SE 14 22 29.94 1014 10 16.09344 0 0
7:35 pm 19:35 Mostly Cloudy 74 23.3 53 11.5 48 48 SE 12 19 29.94 1014 10 16.09344 0 0
7:55 pm 19:55 Mostly Cloudy 73 23 53 11.7 49 49 SE 9 15 29.94 1014 10 16.09344 0 0
8:15 pm 20:15 Mostly Cloudy 72 22.3 53 11.6 51 51 SE 10 17 29.91 1013 10 16.09344 0 0
8:35 pm 20:35 Partly Cloudy 71 21.4 54 12.2 56 56 ESE 13 20 29.91 1013 10 16.09344 0 0
8:55 pm 20:55 Partly Cloudy 69 20.5 55 12.5 60 60 SE 13 20 29.91 1013 10 16.09344 0 0
9:15 pm 21:15 Partly Cloudy 67 19.7 55 12.8 65 65 SE 10 17 29.94 1014 10 16.09344 0 0
9:35 pm 21:35 Clear 66 19 55 12.5 66 66 SE 10 17 29.94 1014 10 16.09344 0 0
9:55 pm 21:55 Clear 66 19 54 12.1 64 64 SE 13 20 29.94 1014 10 16.09344 0 0
10:15 pm 22:15 Clear 65 18.6 53 11.8 65 65 SE 10 17 29.94 1014 10 16.09344 0 0
10:35 pm 22:35 Partly Cloudy 66 18.7 52 11.3 62 62 SE 10 17 29.94 1014 10 16.09344 0 0
10:55 pm 22:55 Partly Cloudy 65 18.3 52 11 63 63 SE 9 15 29.94 1014 10 16.09344 0 0
11:15 pm 23:15 Mostly Cloudy 65 18.2 52 11 63 63 SE 9 15 29.94 1014 10 16.09344 0 0
11:35 pm 23:35 Partly Cloudy 64 17.6 51 10.8 65 65 SE 9 15 29.94 1014 10 16.09344 0 0
11:55 pm 23:55 Clear 63 17.3 51 10.8 66 66 SE 8 13 29.94 1014 10 16.09344 0 0

Powered by AerisWeather